Tacoma Narrows, WA
on Thursday, January 17, 2013

Thursday
Previous Day Next Day
Daily Summary
 ActualAverageRecord
Temperature
Mean Temperature °F °F  
Max Temperature 37°F 44°F 53°F (2005)
Min Temperature 30°F 37°F 30°F (2013)
Degree Days
Heating Degree Days 32    
Moisture
Dew Point 33°F   
Average Humidity 92    
Maximum Humidity 100    
Minimum Humidity 87    
Precipitation
Precipitation 0.00 in in in ()
Wind
Wind Speed 0 mph   
Max Wind Speed 5 mph   
Max Gust Speed mph   
Visibility 2 miles   
Events Fog   
Averages and records for this station are not official NWS values.
Key: T is trace of precipitation, MM is missing value
Source: NWS Daily Summary
Seasonal Weather Averages
Time(PST)TemperatureDew PointHumidity Pressure Visibility Wind DirectionWind SpeedGust SpeedPrecipitationEvents Conditions
12:04 AM 33.8°F 30.2°F 87% 30.51 in 1.0 miles Calm Calm - N/A   Mist
12:06 AM 33.8°F 30.2°F 87% 30.51 in 2.0 miles Calm Calm - N/A   Scattered Clouds
12:13 AM 33.8°F 32.0°F 93% 30.51 in 7.0 miles Calm Calm - N/A   Scattered Clouds
12:31 AM 30.2°F 30.2°F 100% 30.51 in 1.8 miles Calm Calm - N/A   Scattered Clouds
12:37 AM 32.0°F 30.2°F 93% 30.52 in 0.8 miles Calm Calm - N/A   Mostly Cloudy
12:46 AM 32.0°F 30.2°F 93% 30.51 in 1.8 miles Calm Calm - N/A   Mostly Cloudy
12:51 AM 33.8°F 30.2°F 87% 30.51 in 3.0 miles Calm Calm - N/A   Overcast
12:53 AM 33.1°F 30.9°F 92% 30.53 in 4.0 miles Calm Calm - N/A   Overcast
1:07 AM 35.6°F 33.8°F 93% 30.51 in 7.0 miles NE 3.5 mph - N/A   Overcast
1:53 AM 35.1°F 33.1°F 92% 30.53 in 7.0 miles Calm Calm - N/A   Mostly Cloudy
2:06 AM 33.8°F 30.2°F 87% 30.51 in 5.0 miles Calm Calm - N/A   Scattered Clouds
2:50 AM 35.6°F 32.0°F 87% 30.51 in 6.0 miles Calm Calm - N/A   Mostly Cloudy
2:53 AM 35.6°F 32.0°F 87% 30.51 in 6.0 miles Calm Calm - N/A   Mostly Cloudy
3:02 AM 35.6°F 33.8°F 93% 30.50 in 6.0 miles Calm Calm - N/A   Overcast
3:32 AM 35.6°F 32.0°F 87% 30.48 in 6.0 miles Calm Calm - N/A   Scattered Clouds
3:53 AM 30.9°F 30.0°F 96% 30.49 in 2.0 miles Calm Calm - N/A   Clear
4:08 AM 33.8°F 30.2°F 87% 30.47 in 4.0 miles Calm Calm - N/A   Partly Cloudy
4:17 AM 32.0°F 30.2°F 93% 30.47 in 2.0 miles Calm Calm - N/A   Mostly Cloudy
4:24 AM 30.2°F 30.2°F 100% 30.47 in 1.2 miles Calm Calm - N/A   Mostly Cloudy
4:50 AM 33.8°F 30.2°F 87% 30.46 in 3.0 miles Calm Calm - N/A   Overcast
4:53 AM 34.0°F 32.0°F 92% 30.47 in 3.0 miles Calm Calm - N/A   Overcast
5:13 AM 33.8°F 30.2°F 87% 30.46 in 2.5 miles Calm Calm - N/A   Overcast
5:24 AM 33.8°F 32.0°F 93% 30.46 in 3.0 miles Calm Calm - N/A   Overcast
5:53 AM 34.0°F 32.0°F 92% 30.47 in 3.0 miles NW 4.6 mph - N/A   Overcast
6:53 AM 35.1°F 33.1°F 92% 30.45 in 4.0 miles Calm Calm - N/A   Overcast
7:41 AM 35.6°F 33.8°F 93% 30.44 in 4.0 miles Calm Calm - N/A   Overcast
7:53 AM 35.1°F 33.1°F 92% 30.46 in 4.0 miles Calm Calm - N/A   Overcast
8:20 AM 35.6°F 33.8°F 93% 30.45 in 2.5 miles Calm Calm - N/A   Overcast
8:53 AM 35.1°F 33.1°F 92% 30.47 in 1.8 miles Calm Calm - N/A   Overcast
9:53 AM 35.1°F 33.1°F 92% 30.48 in 1.8 miles Calm Calm - N/A   Overcast
10:53 AM 35.1°F 33.1°F 92% 30.47 in 0.8 miles Calm Calm - N/A   Overcast
11:53 AM 36.0°F 33.1°F 89% 30.44 in 1.0 miles Calm Calm - N/A   Overcast
12:53 PM 37.0°F 34.0°F 89% 30.41 in 1.0 miles Calm Calm - N/A   Overcast
1:53 PM 37.0°F 34.0°F 89% 30.38 in 1.5 miles Calm Calm - N/A   Overcast
2:53 PM 37.0°F 34.0°F 89% 30.36 in 1.5 miles Calm Calm - N/A   Overcast
3:53 PM 37.0°F 34.0°F 89% 30.35 in 2.0 miles Calm Calm - N/A   Overcast
4:53 PM 36.0°F 34.0°F 93% 30.36 in 1.5 miles Calm Calm - N/A   Overcast
5:53 PM 36.0°F 34.0°F 93% 30.35 in 1.5 miles Calm Calm - N/A   Overcast
6:53 PM 36.0°F 34.0°F 93% 30.34 in 1.5 miles Calm Calm - N/A   Overcast
7:04 PM 35.6°F 33.8°F 93% 30.33 in 0.5 miles Calm Calm - N/A Fog Fog
7:34 PM 35.6°F 33.8°F 93% 30.33 in 0.2 miles Calm Calm - N/A Fog Fog
7:36 PM 35.6°F 33.8°F 93% 30.33 in 0.2 miles Calm Calm - N/A Fog Fog
7:53 PM 36.0°F 34.0°F 93% 30.34 in 0.2 miles Calm Calm - N/A Fog Fog
8:01 PM 35.6°F 33.8°F 93% 30.32 in 0.5 miles WSW 3.5 mph - N/A Fog Fog
8:09 PM 35.6°F 33.8°F 93% 30.32 in 0.5 miles Calm Calm - N/A Fog Fog
8:53 PM 36.0°F 35.1°F 97% 30.33 in 0.5 miles Calm Calm - N/A Fog Fog
9:21 PM 35.6°F 35.6°F 100% 30.31 in 0.2 miles Calm Calm - N/A Fog Fog
9:41 PM 37.4°F 35.6°F 93% 30.31 in 0.2 miles Calm Calm - N/A Fog Fog
9:53 PM 37.0°F 35.1°F 93% 30.32 in 0.2 miles Calm Calm - N/A Fog Fog
10:53 PM 35.1°F 34.0°F 96% 30.32 in 0.2 miles South 3.5 mph - N/A Fog Fog
11:53 PM 35.1°F 33.1°F 92% 30.31 in 0.2 miles Calm Calm - N/A Fog Fog
Moon Phase
Jan. 17 Jan. 18 Jan. 26 Feb. 03 Feb. 10
Sunrise:07:50 AM (PST) Moon Rise:10:30 AM (PST)1/17
Sunset:04:50 PM (PST) Moon Set:No Moon Set/

Copyright © 2014 The Weather Underground, Inc.